Year,Month,Day,Hour,Minute,Value (Times are PST for temperature in C)
2009,08,07,00,00,12.90
2009,08,07,00,01,12.90
2009,08,07,00,02,12.90
2009,08,07,00,03,12.90
2009,08,07,00,04,12.90
2009,08,07,00,05,12.90
2009,08,07,00,06,12.90
2009,08,07,00,07,12.90
2009,08,07,00,08,12.90
2009,08,07,00,09,12.90
2009,08,07,00,10,12.90
2009,08,07,00,11,12.90
2009,08,07,00,12,12.90
2009,08,07,00,13,12.90
2009,08,07,00,14,12.90
2009,08,07,00,15,12.90
2009,08,07,00,16,12.90
2009,08,07,00,17,12.90
2009,08,07,00,18,12.90
2009,08,07,00,19,12.90
2009,08,07,00,20,12.90
2009,08,07,00,21,12.90
2009,08,07,00,22,12.90
2009,08,07,00,23,12.90
2009,08,07,00,24,12.90
2009,08,07,00,25,12.90
2009,08,07,00,26,12.90
2009,08,07,00,27,12.80
2009,08,07,00,28,12.80
2009,08,07,00,29,12.80
2009,08,07,00,30,12.80
2009,08,07,00,31,12.80
2009,08,07,00,32,12.80
2009,08,07,00,33,12.80
2009,08,07,00,34,12.80
2009,08,07,00,35,12.80
2009,08,07,00,36,12.80
2009,08,07,00,37,12.80
2009,08,07,00,38,12.80
2009,08,07,00,39,12.80
2009,08,07,00,40,12.80
2009,08,07,00,41,12.80
2009,08,07,00,42,12.80
2009,08,07,00,43,12.70
2009,08,07,00,44,12.70
2009,08,07,00,45,12.70
2009,08,07,00,46,12.70
2009,08,07,00,47,12.70
2009,08,07,00,48,12.70
2009,08,07,00,49,12.70
2009,08,07,00,50,12.70
2009,08,07,00,51,12.70
2009,08,07,00,52,12.70
2009,08,07,00,53,12.70
2009,08,07,00,54,12.70
2009,08,07,00,55,12.70
2009,08,07,00,56,12.70
2009,08,07,00,57,12.70
2009,08,07,00,58,12.70
2009,08,07,00,59,12.70
2009,08,07,01,00,12.70
2009,08,07,01,01,12.70
2009,08,07,01,02,12.70
2009,08,07,01,03,12.70
2009,08,07,01,04,12.70
2009,08,07,01,05,12.70
2009,08,07,01,06,12.70
2009,08,07,01,07,12.70
2009,08,07,01,08,12.70
2009,08,07,01,09,12.60
2009,08,07,01,10,12.60
2009,08,07,01,11,12.60
2009,08,07,01,12,12.60
2009,08,07,01,13,12.60
2009,08,07,01,14,12.60
2009,08,07,01,15,12.60
2009,08,07,01,16,12.50
2009,08,07,01,17,12.50
2009,08,07,01,18,12.50
2009,08,07,01,19,12.50
2009,08,07,01,20,12.50
2009,08,07,01,21,12.50
2009,08,07,01,22,12.50
2009,08,07,01,23,12.50
2009,08,07,01,24,12.50
2009,08,07,01,25,12.50
2009,08,07,01,26,12.60
2009,08,07,01,27,12.60
2009,08,07,01,28,12.60
2009,08,07,01,29,12.60
2009,08,07,01,30,12.70
2009,08,07,01,31,12.70
2009,08,07,01,32,12.70
2009,08,07,01,33,12.70
2009,08,07,01,34,12.70
2009,08,07,01,35,12.80
2009,08,07,01,36,12.80
2009,08,07,01,37,12.80
2009,08,07,01,38,12.80
2009,08,07,01,39,12.90
2009,08,07,01,40,12.90
2009,08,07,01,41,12.90
2009,08,07,01,42,12.90
2009,08,07,01,43,12.90
2009,08,07,01,44,12.90
2009,08,07,01,45,12.90
2009,08,07,01,46,12.90
2009,08,07,01,47,12.90
2009,08,07,01,48,12.90
2009,08,07,01,49,12.90
2009,08,07,01,50,12.90
2009,08,07,01,51,12.90
2009,08,07,01,52,12.90
2009,08,07,01,53,12.90
2009,08,07,01,54,12.90
2009,08,07,01,55,12.90
2009,08,07,01,56,12.90
2009,08,07,01,57,12.90
2009,08,07,01,58,12.90
2009,08,07,01,59,12.90
2009,08,07,02,00,12.90
2009,08,07,02,01,12.90
2009,08,07,02,02,12.90
2009,08,07,02,03,12.90
2009,08,07,02,04,12.90
2009,08,07,02,05,12.90
2009,08,07,02,06,12.80
2009,08,07,02,07,12.80
2009,08,07,02,08,12.80
2009,08,07,02,09,12.80
2009,08,07,02,10,12.80
2009,08,07,02,11,12.80
2009,08,07,02,12,12.80
2009,08,07,02,13,12.80
2009,08,07,02,14,12.70
2009,08,07,02,15,12.70
2009,08,07,02,16,12.70
2009,08,07,02,17,12.70
2009,08,07,02,18,12.70
2009,08,07,02,19,12.70
2009,08,07,02,20,12.70
2009,08,07,02,21,12.70
2009,08,07,02,22,12.70
2009,08,07,02,23,12.70
2009,08,07,02,24,12.80
2009,08,07,02,25,12.80
2009,08,07,02,26,12.80
2009,08,07,02,27,12.80
2009,08,07,02,28,12.80
2009,08,07,02,29,12.90
2009,08,07,02,30,12.90
2009,08,07,02,31,13.00
2009,08,07,02,32,13.10
2009,08,07,02,33,13.20
2009,08,07,02,34,13.40
2009,08,07,02,35,13.70
2009,08,07,02,36,13.90
2009,08,07,02,37,14.20
2009,08,07,02,38,14.40
2009,08,07,02,39,14.50
2009,08,07,02,40,14.60
2009,08,07,02,41,14.80
2009,08,07,02,42,14.80
2009,08,07,02,43,14.90
2009,08,07,02,44,14.90
2009,08,07,02,45,14.90
2009,08,07,02,46,14.90
2009,08,07,02,47,14.90
2009,08,07,02,48,14.90
2009,08,07,02,49,14.90
2009,08,07,02,50,14.90
2009,08,07,02,51,14.80
2009,08,07,02,52,14.80
2009,08,07,02,53,14.80
2009,08,07,02,54,14.70
2009,08,07,02,55,14.60
2009,08,07,02,56,14.50
2009,08,07,02,57,14.40
2009,08,07,02,58,14.30
2009,08,07,02,59,14.10
2009,08,07,03,00,14.00
2009,08,07,03,01,13.90
2009,08,07,03,02,13.80
2009,08,07,03,03,13.80
2009,08,07,03,04,13.70
2009,08,07,03,05,13.70
2009,08,07,03,06,13.60
2009,08,07,03,07,13.60
2009,08,07,03,08,13.60
2009,08,07,03,09,13.60
2009,08,07,03,10,13.50
2009,08,07,03,11,13.50
2009,08,07,03,12,13.50
2009,08,07,03,13,13.50
2009,08,07,03,14,13.50
2009,08,07,03,15,13.50
2009,08,07,03,16,13.50
2009,08,07,03,17,13.40
2009,08,07,03,18,13.40
2009,08,07,03,19,13.40
2009,08,07,03,20,13.40
2009,08,07,03,21,13.40
2009,08,07,03,22,13.40
2009,08,07,03,23,13.40
2009,08,07,03,24,13.30
2009,08,07,03,25,13.30
2009,08,07,03,26,13.30
2009,08,07,03,27,13.30
2009,08,07,03,28,13.30
2009,08,07,03,29,13.20
2009,08,07,03,30,13.20
2009,08,07,03,31,13.20
2009,08,07,03,32,13.20
2009,08,07,03,33,13.10
2009,08,07,03,34,13.10
2009,08,07,03,35,13.10
2009,08,07,03,36,13.00
2009,08,07,03,37,13.00
2009,08,07,03,38,13.00
2009,08,07,03,39,12.90
2009,08,07,03,40,12.90
2009,08,07,03,41,12.90
2009,08,07,03,42,12.90
2009,08,07,03,43,12.90
2009,08,07,03,44,12.90
2009,08,07,03,45,12.90
2009,08,07,03,46,12.90
2009,08,07,03,47,12.90
2009,08,07,03,48,12.90
2009,08,07,03,49,12.90
2009,08,07,03,50,12.90
2009,08,07,03,51,12.90
2009,08,07,03,52,12.90
2009,08,07,03,53,12.90
2009,08,07,03,54,12.90
2009,08,07,03,55,12.90
2009,08,07,03,56,12.90
2009,08,07,03,57,12.90
2009,08,07,03,58,12.90
2009,08,07,03,59,12.90
2009,08,07,04,00,12.90
2009,08,07,04,01,12.90
2009,08,07,04,02,12.90
2009,08,07,04,03,12.90
2009,08,07,04,04,12.90
2009,08,07,04,05,12.90
2009,08,07,04,06,12.90
2009,08,07,04,07,12.90
2009,08,07,04,08,12.90
2009,08,07,04,09,13.00
2009,08,07,04,10,13.10
2009,08,07,04,11,13.10
2009,08,07,04,12,13.20
2009,08,07,04,13,13.30
2009,08,07,04,14,13.40
2009,08,07,04,15,13.40
2009,08,07,04,16,13.50
2009,08,07,04,17,13.60
2009,08,07,04,18,13.60
2009,08,07,04,19,13.70
2009,08,07,04,20,13.70
2009,08,07,04,21,13.80
2009,08,07,04,22,13.80
2009,08,07,04,23,13.80
2009,08,07,04,24,13.80
2009,08,07,04,25,13.80
2009,08,07,04,26,13.90
2009,08,07,04,27,13.90
2009,08,07,04,28,13.90
2009,08,07,04,29,13.90
2009,08,07,04,30,13.90
2009,08,07,04,31,13.90
2009,08,07,04,32,13.90
2009,08,07,04,33,14.00
2009,08,07,04,34,14.00
2009,08,07,04,35,14.00
2009,08,07,04,36,14.00
2009,08,07,04,37,14.00
2009,08,07,04,38,14.00
2009,08,07,04,39,14.10
2009,08,07,04,40,14.10
2009,08,07,04,41,14.10
2009,08,07,04,42,14.10
2009,08,07,04,43,14.10
2009,08,07,04,44,14.10
2009,08,07,04,45,14.20
2009,08,07,04,46,14.20
2009,08,07,04,47,14.20
2009,08,07,04,48,14.20
2009,08,07,04,49,14.30
2009,08,07,04,50,14.30
2009,08,07,04,51,14.30
2009,08,07,04,52,14.30
2009,08,07,04,53,14.30
2009,08,07,04,54,14.30
2009,08,07,04,55,14.30
2009,08,07,04,56,14.30
2009,08,07,04,57,14.40
2009,08,07,04,58,14.40
2009,08,07,04,59,14.40
2009,08,07,05,00,14.40
2009,08,07,05,01,14.40
2009,08,07,05,02,14.40
2009,08,07,05,03,14.40
2009,08,07,05,04,14.40
2009,08,07,05,05,14.40
2009,08,07,05,06,14.40
2009,08,07,05,07,14.30
2009,08,07,05,08,14.30
2009,08,07,05,09,14.30
2009,08,07,05,10,14.30
2009,08,07,05,11,14.30
2009,08,07,05,12,14.30
2009,08,07,05,13,14.30
2009,08,07,05,14,14.30
2009,08,07,05,15,14.30
2009,08,07,05,16,14.30
2009,08,07,05,17,14.30
2009,08,07,05,18,14.30
2009,08,07,05,19,14.30
2009,08,07,05,20,14.30
2009,08,07,05,21,14.30
2009,08,07,05,22,14.30
2009,08,07,05,23,14.30
2009,08,07,05,24,14.30
2009,08,07,05,25,14.40
2009,08,07,05,26,14.40
2009,08,07,05,27,14.40
2009,08,07,05,28,14.40
2009,08,07,05,29,14.40
2009,08,07,05,30,14.40
2009,08,07,05,31,14.40
2009,08,07,05,32,14.40
2009,08,07,05,33,14.30
2009,08,07,05,34,14.30
2009,08,07,05,35,14.30
2009,08,07,05,36,14.30
2009,08,07,05,37,14.30
2009,08,07,05,38,14.30
2009,08,07,05,39,14.30
2009,08,07,05,40,14.30
2009,08,07,05,41,14.30
2009,08,07,05,42,14.30
2009,08,07,05,43,14.30
2009,08,07,05,44,14.30
2009,08,07,05,45,14.30
2009,08,07,05,46,14.30
2009,08,07,05,47,14.30
2009,08,07,05,48,14.30
2009,08,07,05,49,14.20
2009,08,07,05,50,14.20
2009,08,07,05,51,14.20
2009,08,07,05,52,14.20
2009,08,07,05,53,14.20
2009,08,07,05,54,14.20
2009,08,07,05,55,14.20
2009,08,07,05,56,14.20
2009,08,07,05,57,14.20
2009,08,07,05,58,14.20
2009,08,07,05,59,14.20
2009,08,07,06,00,14.20
2009,08,07,06,01,14.20
2009,08,07,06,02,14.20
2009,08,07,06,03,14.20
2009,08,07,06,04,14.20
2009,08,07,06,05,14.30
2009,08,07,06,06,14.20
2009,08,07,06,07,14.30
2009,08,07,06,08,14.30
2009,08,07,06,09,14.30
2009,08,07,06,10,14.30
2009,08,07,06,11,14.30
2009,08,07,06,12,14.30
2009,08,07,06,13,14.30
2009,08,07,06,14,14.30
2009,08,07,06,15,14.30
2009,08,07,06,16,14.30
2009,08,07,06,17,14.30
2009,08,07,06,18,14.30
2009,08,07,06,19,14.30
2009,08,07,06,20,14.30
2009,08,07,06,21,14.30
2009,08,07,06,22,14.30
2009,08,07,06,23,14.30
2009,08,07,06,24,14.30
2009,08,07,06,25,14.30
2009,08,07,06,26,14.30
2009,08,07,06,27,14.30
2009,08,07,06,28,14.30
2009,08,07,06,29,14.30
2009,08,07,06,30,14.30
2009,08,07,06,31,14.30
2009,08,07,06,32,14.30
2009,08,07,06,33,14.30
2009,08,07,06,34,14.30
2009,08,07,06,35,14.30
2009,08,07,06,36,14.30
2009,08,07,06,37,14.40
2009,08,07,06,38,14.40
2009,08,07,06,39,14.40
2009,08,07,06,40,14.40
2009,08,07,06,41,14.40
2009,08,07,06,42,14.40
2009,08,07,06,43,14.40
2009,08,07,06,44,14.40
2009,08,07,06,45,14.40
2009,08,07,06,46,14.40
2009,08,07,06,47,14.40
2009,08,07,06,48,14.40
2009,08,07,06,49,14.40
2009,08,07,06,50,14.40
2009,08,07,06,51,14.40
2009,08,07,06,52,14.40
2009,08,07,06,53,14.40
2009,08,07,06,54,14.40
2009,08,07,06,55,14.40
2009,08,07,06,56,14.40
2009,08,07,06,57,14.40
2009,08,07,06,58,14.40
2009,08,07,06,59,14.40
2009,08,07,07,00,14.40
2009,08,07,07,01,14.40
2009,08,07,07,02,14.40
2009,08,07,07,03,14.40
2009,08,07,07,04,14.40
2009,08,07,07,05,14.40
2009,08,07,07,06,14.50
2009,08,07,07,07,14.50
2009,08,07,07,08,14.50
2009,08,07,07,09,14.50
2009,08,07,07,10,14.50
2009,08,07,07,11,14.50
2009,08,07,07,12,14.50
2009,08,07,07,13,14.50
2009,08,07,07,14,14.50
2009,08,07,07,15,14.50
2009,08,07,07,16,14.60
2009,08,07,07,17,14.60
2009,08,07,07,18,14.60
2009,08,07,07,19,14.60
2009,08,07,07,20,14.60
2009,08,07,07,21,14.60
2009,08,07,07,22,14.60
2009,08,07,07,23,14.60
2009,08,07,07,24,14.60
2009,08,07,07,25,14.60
2009,08,07,07,26,14.60
2009,08,07,07,27,14.70
2009,08,07,07,28,14.70
2009,08,07,07,29,14.70
2009,08,07,07,30,14.70
2009,08,07,07,31,14.70
2009,08,07,07,32,14.70
2009,08,07,07,33,14.70
2009,08,07,07,34,14.70
2009,08,07,07,35,14.70
2009,08,07,07,36,14.80
2009,08,07,07,37,14.80
2009,08,07,07,38,14.80
2009,08,07,07,39,14.80
2009,08,07,07,40,14.80
2009,08,07,07,41,14.80
2009,08,07,07,42,14.80
2009,08,07,07,43,14.80
2009,08,07,07,44,14.80
2009,08,07,07,45,14.80
2009,08,07,07,46,14.80
2009,08,07,07,47,14.80
2009,08,07,07,48,14.70
2009,08,07,07,49,14.70
2009,08,07,07,50,14.70
2009,08,07,07,51,14.70
2009,08,07,07,52,14.70
2009,08,07,07,53,14.70
2009,08,07,07,54,14.70
2009,08,07,07,55,14.60
2009,08,07,07,56,14.60
2009,08,07,07,57,14.60
2009,08,07,07,58,14.60
2009,08,07,07,59,14.60
2009,08,07,08,00,14.60
2009,08,07,08,01,14.60
2009,08,07,08,02,14.70
2009,08,07,08,03,14.70
2009,08,07,08,04,14.70
2009,08,07,08,05,14.70
2009,08,07,08,06,14.70
2009,08,07,08,07,14.70
2009,08,07,08,08,14.70
2009,08,07,08,09,14.70
2009,08,07,08,10,14.70
2009,08,07,08,11,14.70
2009,08,07,08,12,14.70
2009,08,07,08,13,14.70
2009,08,07,08,14,14.70
2009,08,07,08,15,14.70
2009,08,07,08,16,14.70
2009,08,07,08,17,14.70
2009,08,07,08,18,14.80
2009,08,07,08,19,14.80
2009,08,07,08,20,14.80
2009,08,07,08,21,14.80
2009,08,07,08,22,14.80
2009,08,07,08,23,14.80
2009,08,07,08,24,14.80
2009,08,07,08,25,14.70
2009,08,07,08,26,14.70
2009,08,07,08,27,14.70
2009,08,07,08,28,14.70
2009,08,07,08,29,14.60
2009,08,07,08,30,14.60
2009,08,07,08,31,14.60
2009,08,07,08,32,14.60
2009,08,07,08,33,14.60
2009,08,07,08,34,14.50
2009,08,07,08,35,14.50
2009,08,07,08,36,14.50
2009,08,07,08,37,14.50
2009,08,07,08,38,14.50
2009,08,07,08,39,14.40
2009,08,07,08,40,14.50
2009,08,07,08,41,14.40
2009,08,07,08,42,14.50
2009,08,07,08,43,14.50
2009,08,07,08,44,14.50
2009,08,07,08,45,14.50
2009,08,07,08,46,14.60
2009,08,07,08,47,14.60
2009,08,07,08,48,14.60
2009,08,07,08,49,14.60
2009,08,07,08,50,14.60
2009,08,07,08,51,14.60
2009,08,07,08,52,14.60
2009,08,07,08,53,14.60
2009,08,07,08,54,14.50
2009,08,07,08,55,14.40
2009,08,07,08,56,14.40
2009,08,07,08,57,14.30
2009,08,07,08,58,14.20
2009,08,07,08,59,14.20
2009,08,07,09,00,14.20
2009,08,07,09,01,14.30
2009,08,07,09,02,14.30
2009,08,07,09,03,14.30
2009,08,07,09,04,14.30
2009,08,07,09,05,14.40
2009,08,07,09,06,14.40
2009,08,07,09,07,14.40
2009,08,07,09,08,14.40
2009,08,07,09,09,14.40
2009,08,07,09,10,14.40
2009,08,07,09,11,14.40
2009,08,07,09,12,14.40
2009,08,07,09,13,14.40
2009,08,07,09,14,14.50
2009,08,07,09,15,14.60
2009,08,07,09,16,14.60
2009,08,07,09,17,14.60
2009,08,07,09,18,14.70
2009,08,07,09,19,14.70
2009,08,07,09,20,14.70
2009,08,07,09,21,14.60
2009,08,07,09,22,14.60
2009,08,07,09,23,14.70
2009,08,07,09,24,14.70
2009,08,07,09,25,14.70
2009,08,07,09,26,14.80
2009,08,07,09,27,14.80
2009,08,07,09,28,14.80
2009,08,07,09,29,14.90
2009,08,07,09,30,14.90
2009,08,07,09,31,15.00
2009,08,07,09,32,15.00
2009,08,07,09,33,15.00
2009,08,07,09,34,15.00
2009,08,07,09,35,14.90
2009,08,07,09,36,14.80
2009,08,07,09,37,14.80
2009,08,07,09,38,14.80
2009,08,07,09,39,14.80
2009,08,07,09,40,14.80
2009,08,07,09,41,14.80
2009,08,07,09,42,14.80
2009,08,07,09,43,14.90
2009,08,07,09,44,15.00
2009,08,07,09,45,15.00
2009,08,07,09,46,15.00
2009,08,07,09,47,15.00
2009,08,07,09,48,15.00
2009,08,07,09,49,15.00
2009,08,07,09,50,15.00
2009,08,07,09,51,15.00
2009,08,07,09,52,15.00
2009,08,07,09,53,15.00
2009,08,07,09,54,15.00
2009,08,07,09,55,15.00
2009,08,07,09,56,15.00
2009,08,07,09,57,14.90
2009,08,07,09,58,15.00
2009,08,07,09,59,15.00
2009,08,07,10,00,15.00
2009,08,07,10,01,15.00
2009,08,07,10,02,15.00
2009,08,07,10,03,15.00
2009,08,07,10,04,15.00
2009,08,07,10,05,15.00
2009,08,07,10,06,15.00
2009,08,07,10,07,15.10
2009,08,07,10,08,15.20
2009,08,07,10,09,15.30
2009,08,07,10,10,15.30
2009,08,07,10,11,15.30
2009,08,07,10,12,15.30
2009,08,07,10,13,15.30
2009,08,07,10,14,15.20
2009,08,07,10,15,15.10
2009,08,07,10,16,15.10
2009,08,07,10,17,15.20
2009,08,07,10,18,15.20
2009,08,07,10,19,15.10
2009,08,07,10,20,15.00
2009,08,07,10,21,15.00
2009,08,07,10,22,15.00
2009,08,07,10,23,15.00
2009,08,07,10,24,14.90
2009,08,07,10,25,14.80
2009,08,07,10,26,14.70
2009,08,07,10,27,14.70
2009,08,07,10,28,14.70
2009,08,07,10,29,14.70
2009,08,07,10,30,14.70
2009,08,07,10,31,14.70
2009,08,07,10,32,14.80
2009,08,07,10,33,14.90
2009,08,07,10,34,15.00
2009,08,07,10,35,15.00
2009,08,07,10,36,15.00
2009,08,07,10,37,15.00
2009,08,07,10,38,15.00
2009,08,07,10,39,15.00
2009,08,07,10,40,15.00
2009,08,07,10,41,15.00
2009,08,07,10,42,15.00
2009,08,07,10,43,15.00
2009,08,07,10,44,15.00
2009,08,07,10,45,15.00
2009,08,07,10,46,15.00
2009,08,07,10,47,15.00
2009,08,07,10,48,15.00
2009,08,07,10,49,14.90
2009,08,07,10,50,15.00
2009,08,07,10,51,15.00
2009,08,07,10,52,15.00
2009,08,07,10,53,15.00
2009,08,07,10,54,15.00
2009,08,07,10,55,15.00
2009,08,07,10,56,15.10
2009,08,07,10,57,15.20
2009,08,07,10,58,15.20
2009,08,07,10,59,15.30
2009,08,07,11,00,15.30
2009,08,07,11,01,15.40
2009,08,07,11,02,15.40
2009,08,07,11,03,15.30
2009,08,07,11,04,15.30
2009,08,07,11,05,15.20
2009,08,07,11,06,15.20
2009,08,07,11,07,15.10
2009,08,07,11,08,15.00
2009,08,07,11,09,15.00
2009,08,07,11,10,15.00
2009,08,07,11,11,15.00
2009,08,07,11,12,15.00
2009,08,07,11,13,15.00
2009,08,07,11,14,15.00
2009,08,07,11,15,15.00
2009,08,07,11,16,15.00
2009,08,07,11,17,15.00
2009,08,07,11,18,15.00
2009,08,07,11,19,15.00
2009,08,07,11,20,14.90
2009,08,07,11,21,14.80
2009,08,07,11,22,14.80
2009,08,07,11,23,14.70
2009,08,07,11,24,14.70
2009,08,07,11,25,14.60
2009,08,07,11,26,14.60
2009,08,07,11,27,14.60
2009,08,07,11,28,14.50
2009,08,07,11,29,14.50
2009,08,07,11,30,14.50
2009,08,07,11,31,14.60
2009,08,07,11,32,14.60
2009,08,07,11,33,14.60
2009,08,07,11,34,14.60
2009,08,07,11,35,14.60
2009,08,07,11,36,14.60
2009,08,07,11,37,14.70
2009,08,07,11,38,14.70
2009,08,07,11,39,14.70
2009,08,07,11,40,14.60
2009,08,07,11,41,14.60
2009,08,07,11,42,14.50
2009,08,07,11,43,14.40
2009,08,07,11,44,14.40
2009,08,07,11,45,14.40
2009,08,07,11,46,14.40
2009,08,07,11,47,14.50
2009,08,07,11,48,14.60
2009,08,07,11,49,14.50
2009,08,07,11,50,14.50
2009,08,07,11,51,14.50
2009,08,07,11,52,14.50
2009,08,07,11,53,14.50
2009,08,07,11,54,14.60
2009,08,07,11,55,14.60
2009,08,07,11,56,14.70
2009,08,07,11,57,14.80
2009,08,07,11,58,14.80
2009,08,07,11,59,14.90
2009,08,07,12,00,15.00
2009,08,07,12,01,15.00
2009,08,07,12,02,14.90
2009,08,07,12,03,14.90
2009,08,07,12,04,14.90
2009,08,07,12,05,14.90
2009,08,07,12,06,15.00
2009,08,07,12,07,15.00
2009,08,07,12,08,15.00
2009,08,07,12,09,15.00
2009,08,07,12,10,15.10
2009,08,07,12,11,15.10
2009,08,07,12,12,15.20
2009,08,07,12,13,15.20
2009,08,07,12,14,15.20
2009,08,07,12,15,15.30
2009,08,07,12,16,15.30
2009,08,07,12,17,15.30
2009,08,07,12,18,15.30
2009,08,07,12,19,15.30
2009,08,07,12,20,15.30
2009,08,07,12,21,15.30
2009,08,07,12,22,15.20
2009,08,07,12,23,15.20
2009,08,07,12,24,15.30
2009,08,07,12,25,15.30
2009,08,07,12,26,15.30
2009,08,07,12,27,15.20
2009,08,07,12,28,15.10
2009,08,07,12,29,15.10
2009,08,07,12,30,15.20
2009,08,07,12,31,15.10
2009,08,07,12,32,15.00
2009,08,07,12,33,15.10
2009,08,07,12,34,15.20
2009,08,07,12,35,15.30
2009,08,07,12,36,15.20
2009,08,07,12,37,15.20
2009,08,07,12,38,15.20
2009,08,07,12,39,15.00
2009,08,07,12,40,15.00
2009,08,07,12,41,15.00
2009,08,07,12,42,15.00
2009,08,07,12,43,15.00
2009,08,07,12,44,15.00
2009,08,07,12,45,15.00
2009,08,07,12,46,15.00
2009,08,07,12,47,15.00
2009,08,07,12,48,15.00
2009,08,07,12,49,15.00
2009,08,07,12,50,15.00
2009,08,07,12,51,15.00
2009,08,07,12,52,15.00
2009,08,07,12,53,15.00
2009,08,07,12,54,15.00
2009,08,07,12,55,15.10
2009,08,07,12,56,15.20
2009,08,07,12,57,15.30
2009,08,07,12,58,15.20
2009,08,07,12,59,15.00
2009,08,07,13,00,15.00
2009,08,07,13,01,15.10
2009,08,07,13,02,15.20
2009,08,07,13,03,15.20
2009,08,07,13,04,15.20
2009,08,07,13,05,15.20
2009,08,07,13,06,15.20
2009,08,07,13,07,15.20
2009,08,07,13,08,15.20
2009,08,07,13,09,15.20
2009,08,07,13,10,15.20
2009,08,07,13,11,15.30
2009,08,07,13,12,15.20
2009,08,07,13,13,15.10
2009,08,07,13,14,15.00
2009,08,07,13,15,15.00
2009,08,07,13,16,15.00
2009,08,07,13,17,15.00
2009,08,07,13,18,15.10
2009,08,07,13,19,15.00
2009,08,07,13,20,15.00
2009,08,07,13,21,15.10
2009,08,07,13,22,15.20
2009,08,07,13,23,15.30
2009,08,07,13,24,15.40
2009,08,07,13,25,15.40
2009,08,07,13,26,15.50
2009,08,07,13,27,15.60
2009,08,07,13,28,15.60
2009,08,07,13,29,15.70
2009,08,07,13,30,15.70
2009,08,07,13,31,15.70
2009,08,07,13,32,15.60
2009,08,07,13,33,15.60
2009,08,07,13,34,15.60
2009,08,07,13,35,15.70
2009,08,07,13,36,15.50
2009,08,07,13,37,15.50
2009,08,07,13,38,15.40
2009,08,07,13,39,15.20
2009,08,07,13,40,15.30
2009,08,07,13,41,15.40
2009,08,07,13,42,15.50
2009,08,07,13,43,15.60
2009,08,07,13,44,15.60
2009,08,07,13,45,15.70
2009,08,07,13,46,15.80
2009,08,07,13,47,15.90
2009,08,07,13,48,15.80
2009,08,07,13,49,15.80
2009,08,07,13,50,15.80
2009,08,07,13,51,15.70
2009,08,07,13,52,15.70
2009,08,07,13,53,15.60
2009,08,07,13,54,15.60
2009,08,07,13,55,15.60
2009,08,07,13,56,15.70
2009,08,07,13,57,15.60
2009,08,07,13,58,15.50
2009,08,07,13,59,15.40
2009,08,07,14,00,15.30
2009,08,07,14,01,15.40
2009,08,07,14,02,15.50
2009,08,07,14,03,15.60
2009,08,07,14,04,15.70
2009,08,07,14,05,15.80
2009,08,07,14,06,15.80
2009,08,07,14,07,15.90
2009,08,07,14,08,15.90
2009,08,07,14,09,15.90
2009,08,07,14,10,15.90
2009,08,07,14,11,16.00
2009,08,07,14,12,16.00
2009,08,07,14,13,16.10
2009,08,07,14,14,16.20
2009,08,07,14,15,16.20
2009,08,07,14,16,16.20
2009,08,07,14,17,16.20
2009,08,07,14,18,16.10
2009,08,07,14,19,15.90
2009,08,07,14,20,15.80
2009,08,07,14,21,15.70
2009,08,07,14,22,15.70
2009,08,07,14,23,15.80
2009,08,07,14,24,15.80
2009,08,07,14,25,15.90
2009,08,07,14,26,16.00
2009,08,07,14,27,16.20
2009,08,07,14,28,16.30
2009,08,07,14,29,16.20
2009,08,07,14,30,16.20
2009,08,07,14,31,16.10
2009,08,07,14,32,16.00
2009,08,07,14,33,15.90
2009,08,07,14,34,15.70
2009,08,07,14,35,15.60
2009,08,07,14,36,15.60
2009,08,07,14,37,15.60
2009,08,07,14,38,15.60
2009,08,07,14,39,15.60
2009,08,07,14,40,15.50
2009,08,07,14,41,15.30
2009,08,07,14,42,15.30
2009,08,07,14,43,15.20
2009,08,07,14,44,15.30
2009,08,07,14,45,15.30
2009,08,07,14,46,15.50
2009,08,07,14,47,15.50
2009,08,07,14,48,15.60
2009,08,07,14,49,15.80
2009,08,07,14,50,16.00
2009,08,07,14,51,16.10
2009,08,07,14,52,16.20
2009,08,07,14,53,16.40
2009,08,07,14,54,16.40
2009,08,07,14,55,16.40
2009,08,07,14,56,16.40
2009,08,07,14,57,16.50
2009,08,07,14,58,16.50
2009,08,07,14,59,16.50
2009,08,07,15,00,16.60
2009,08,07,15,01,16.70
2009,08,07,15,02,16.90
2009,08,07,15,03,16.90
2009,08,07,15,04,16.90
2009,08,07,15,05,16.80
2009,08,07,15,06,16.70
2009,08,07,15,07,16.70
2009,08,07,15,08,16.70
2009,08,07,15,09,16.70
2009,08,07,15,10,16.80
2009,08,07,15,11,16.80
2009,08,07,15,12,16.80
2009,08,07,15,13,16.80
2009,08,07,15,14,16.70
2009,08,07,15,15,16.50
2009,08,07,15,16,16.40
2009,08,07,15,17,16.40
2009,08,07,15,18,16.30
2009,08,07,15,19,16.40
2009,08,07,15,20,16.40
2009,08,07,15,21,16.40
2009,08,07,15,22,16.40
2009,08,07,15,23,16.30
2009,08,07,15,24,16.40
2009,08,07,15,25,16.40
2009,08,07,15,26,16.40
2009,08,07,15,27,16.30
2009,08,07,15,28,16.30
2009,08,07,15,29,16.30
2009,08,07,15,30,16.40
2009,08,07,15,31,16.40
2009,08,07,15,32,16.30
2009,08,07,15,33,16.30
2009,08,07,15,34,16.30
2009,08,07,15,35,16.30
2009,08,07,15,36,16.30
2009,08,07,15,37,16.20
2009,08,07,15,38,16.10
2009,08,07,15,39,16.10
2009,08,07,15,40,16.10
2009,08,07,15,41,16.20
2009,08,07,15,42,16.20
2009,08,07,15,43,16.30
2009,08,07,15,44,16.20
2009,08,07,15,45,16.20
2009,08,07,15,46,16.10
2009,08,07,15,47,16.00
2009,08,07,15,48,15.90
2009,08,07,15,49,15.80
2009,08,07,15,50,15.80
2009,08,07,15,51,15.70
2009,08,07,15,52,15.70
2009,08,07,15,53,15.70
2009,08,07,15,54,15.80
2009,08,07,15,55,15.80
2009,08,07,15,56,15.80
2009,08,07,15,57,15.80
2009,08,07,15,58,15.80
2009,08,07,15,59,15.80
2009,08,07,16,00,15.80
2009,08,07,16,01,15.90
2009,08,07,16,02,15.90
2009,08,07,16,03,15.80
2009,08,07,16,04,15.80
2009,08,07,16,05,15.70
2009,08,07,16,06,15.70
2009,08,07,16,07,15.60
2009,08,07,16,08,15.60
2009,08,07,16,09,15.70
2009,08,07,16,10,15.70
2009,08,07,16,11,15.70
2009,08,07,16,12,15.70
2009,08,07,16,13,15.70
2009,08,07,16,14,15.70
2009,08,07,16,15,15.70
2009,08,07,16,16,15.70
2009,08,07,16,17,15.70
2009,08,07,16,18,15.60
2009,08,07,16,19,15.60
2009,08,07,16,20,15.60
2009,08,07,16,21,15.70
2009,08,07,16,22,15.70
2009,08,07,16,23,15.60
2009,08,07,16,24,15.60
2009,08,07,16,25,15.60
2009,08,07,16,26,15.60
2009,08,07,16,27,15.60
2009,08,07,16,28,15.60
2009,08,07,16,29,15.60
2009,08,07,16,30,15.60
2009,08,07,16,31,15.60
2009,08,07,16,32,15.60
2009,08,07,16,33,15.60
2009,08,07,16,34,15.50
2009,08,07,16,35,15.50
2009,08,07,16,36,15.50
2009,08,07,16,37,15.50
2009,08,07,16,38,15.50
2009,08,07,16,39,15.50
2009,08,07,16,40,15.60
2009,08,07,16,41,15.60
2009,08,07,16,42,15.60
2009,08,07,16,43,15.60
2009,08,07,16,44,15.60
2009,08,07,16,45,15.60
2009,08,07,16,46,15.60
2009,08,07,16,47,15.70
2009,08,07,16,48,15.80
2009,08,07,16,49,15.80
2009,08,07,16,50,15.80
2009,08,07,16,51,15.90
2009,08,07,16,52,15.90
2009,08,07,16,53,15.90
2009,08,07,16,54,15.90
2009,08,07,16,55,16.00
2009,08,07,16,56,16.00
2009,08,07,16,57,16.10
2009,08,07,16,58,16.20
2009,08,07,16,59,16.20
2009,08,07,17,00,16.30
2009,08,07,17,01,16.30
2009,08,07,17,02,16.40
2009,08,07,17,03,16.40
2009,08,07,17,04,16.40
2009,08,07,17,05,16.40
2009,08,07,17,06,16.40
2009,08,07,17,07,16.40
2009,08,07,17,08,16.40
2009,08,07,17,09,16.30
2009,08,07,17,10,16.30
2009,08,07,17,11,16.30
2009,08,07,17,12,16.30
2009,08,07,17,13,16.30
2009,08,07,17,14,16.20
2009,08,07,17,15,16.10
2009,08,07,17,16,16.10
2009,08,07,17,17,16.10
2009,08,07,17,18,16.00
2009,08,07,17,19,16.00